This is the latest recevied weather packets stored in our database for station/object WX4BK-13. If no packets are shown the sender has not sent any weather packets the latest 1 day(s).
| Time | Temp. | Humidity | Pressure | Rain* | Wind** | Luminosity | Snow |
|---|---|---|---|---|---|---|---|
| 1778019327 | 25° C | 4% | - | 0 mm | 1.79 m/s, 202° | - | - |
| 1778019147 | 25° C | 4% | - | 0 mm | 3.13 m/s, 196° | - | - |
| 1778018967 | 25.56° C | 4% | - | 0 mm | 1.79 m/s, 226° | - | - |
| 1778018787 | 25° C | 4% | - | 0 mm | 2.68 m/s, 250° | - | - |
| 1778018607 | 24.44° C | 4% | - | 0 mm | 1.34 m/s, 154° | - | - |
| 1778018247 | 24.44° C | 4% | - | 0 mm | 2.24 m/s, 256° | - | - |
| 1778018067 | 23.89° C | 4% | - | 0 mm | 4.02 m/s, 191° | - | - |
| 1778017707 | 24.44° C | 4% | - | 0 mm | 0.89 m/s, 202° | - | - |
| 1778017527 | 24.44° C | 4% | - | 0 mm | 1.34 m/s, 242° | - | - |
| 1778017347 | 25° C | 4% | - | 0 mm | 0.45 m/s, 198° | - | - |
| 1778017167 | 25° C | 4% | - | 0 mm | 1.34 m/s, 276° | - | - |
| 1778016987 | 25° C | 4% | - | 0 mm | 0.89 m/s, 202° | - | - |
| 1778016806 | 24.44° C | 4% | - | 0 mm | 2.68 m/s, 231° | - | - |
| 1778016626 | 25° C | 4% | - | 0 mm | 1.34 m/s, 225° | - | - |
| 1778016446 | 25° C | 4% | - | 0 mm | 2.24 m/s, 208° | - | - |
| 1778016266 | 25° C | 4% | - | 0 mm | 3.13 m/s, 210° | - | - |
| 1778016086 | 25° C | 4% | - | 0 mm | 1.79 m/s, 186° | - | - |
| 1778015726 | 25° C | 4% | - | 0 mm | 0.89 m/s, 180° | - | - |
| 1778015549 | 25° C | 4% | - | 0 mm | 3.58 m/s, 202° | - | - |
| 1778015366 | 25° C | 4% | - | 0 mm | 0.89 m/s, 225° | - | - |
| 1778015186 | 24.44° C | 4% | - | 0 mm | 0.89 m/s, 180° | - | - |
| 1778015006 | 25° C | 4% | - | 0 mm | 3.58 m/s, 171° | - | - |
| 1778014646 | 25° C | 4% | - | 0 mm | 3.13 m/s, 215° | - | - |
| 1778014466 | 25° C | 4% | - | 0 mm | 2.24 m/s, 226° | - | - |
| 1778014106 | 25° C | 4% | - | 0 mm | 3.13 m/s, 230° | - | - |
* Rain latest hour (hover to see other rain measurements)
** Current wind speed in m/s (hover to see current wind gust speed)